Regional Weather Roundup
Issued by NWS Cleveland, OH

Home | Current Version | Previous Version | Text Only | Print | Product List | Glossary Off
Versions: 1 2 3 4 5 6 7 8 9 10 11 12 13 14 15 16 17 18 19 20 21 22 23 24 25 26 27 28 29 30 31 32 33 34 35 36 37 38 39 40 41 42 43 44 45 46 47 48 49 50

000
ASUS41 KCLE 191012
RWRCLE
OHIO REGIONAL WEATHER ROUNDUP
NATIONAL WEATHER SERVICE WILMINGTON, OH
600 AM EDT THU APR 19 2018

NOTE: "FAIR" INDICATES FEW OR NO CLOUDS BELOW 12,000 FEET WITH NO
SIGNIFICANT WEATHER AND/OR OBSTRUCTIONS TO VISIBILITY.

OHZ001>008-015>018-024>027-034-035-043-044-191100-
   NORTHWEST OHIO

CITY           SKY/WX    TMP DP  RH WIND       PRES   REMARKS
DEFIANCE       LGT SNOW  32  29  88 N10       29.98R FOG     WCI  24
FINDLAY        LGT SNOW  33  29  85 N10       29.92R FOG     WCI  25
TOLEDO EXPRESS LGT SNOW  33  33 100 NW8       29.95R FOG     WCI  26
TOLEDO EXEC    LGT SNOW  33  30  88 NW9       29.95R FOG     WCI  25
LIMA           LGT SNOW  32  31  96 N14       29.93R FOG     WCI  22
$$

OHZ009>014-019>023-028>033-038-089-191100-
   NORTHEAST OHIO

CITY           SKY/WX    TMP DP  RH WIND       PRES   REMARKS
CLE-HOPKINS    LGT SNOW  34  32  92 N14       29.88R FOG     WCI  25
CLE-LAKEFRONT  LGT SNOW  34  30  85 N13       29.86R FOG     WCI  25
CUY CO. ARPT   NOT AVBL
LORAIN-ELYRIA  LGT SNOW  32  27  81 N12       29.87R WCI  23
ASHTABULA      FRZ RAIN  32  30  92 NW5       29.82R FOG     WCI  27
AKRON-CANTON   LGT RAIN  34  30  85 N10       29.80R FOG     WCI  26
WOOSTER        LGT SNOW  32  31  96 N13       29.83R FOG     WCI  22
MANSFIELD      LGT SNOW  32  31  96 N13       29.85R FOG     WCI  22
YOUNGSTOWN     FRZ RAIN  32  30  92 N12       29.77R FOG     WCI  23
$$

OHZ042-051>053-060>062-070>072-077>081-191100-
  SOUTHWEST OHIO

CITY           SKY/WX    TMP DP  RH WIND       PRES   REMARKS
CINC-COVINGTON CLOUDY    39  29  67 W18G26    29.96R
CINC-LUNKEN    CLOUDY    40  31  70 W14G20    29.98R
HAMILTON       CLOUDY    39  28  64 W15G23    29.97R
DAYTON         FLURRIES  35  33  92 W17       29.94R WCI  25
WRIGHT-PAT AFB FLURRIES  37  31  79 W15G23    29.93R
DAYTON GENERAL CLOUDY    38  29  70 W13G22    29.93R
WILMINGTON     CLOUDY    37  30  75 W21G29    29.92R
$$

OHZ036-037-039>041-045>050-054>059-063>069-073>076-082>088-191100-
  CENTRAL AND SOUTHEAST OHIO

CITY           SKY/WX    TMP DP  RH WIND       PRES   REMARKS
COLUMBUS       LGT SNOW  36  34  92 NW15      29.89R FOG
OSU AIRPORT    CLOUDY    35  33  92 NW12      29.89R WCI  27
BOLTON FIELD   CLOUDY    37  33  89 W13G23    29.89R
RICKENBACK AFB CLOUDY    38  34  85 W20G26    29.89R FOG
NEWARK         CLOUDY    36  33  89 NW13      29.85R
MARION         LGT SNOW  32  30  92 N13       29.91R FOG     WCI  22
LANCASTER      CLOUDY    39  33  79 W16G31    29.87R
ZANESVILLE     CLOUDY    41  35  79 W21G31    29.81R
NEW PHILLY     CLOUDY    37  33  85 NW7       29.81R
$$




USA.gov is the U.S. government's official web portal to all federal, state and local government web resources and services.